Regional Weather Roundup
Issued by NWS Sioux Falls, SD

Home | Current Version | Previous Version | Text Only | Print | Product List | Glossary On
Versions: 1 2 3 4 5 6 7 8 9 10 11 12 13 14 15 16 17 18 19 20 21 22 23 24 25 26 27 28 29 30 31 32 33 34 35 36 37 38 39 40 41 42 43 44 45 46 47 48 49 50
000
ASUS43 KFSD 270510
RWRFSD

WEATHER ROUNDUP FOR SE SOUTH DAKOTA/SW MINNESOTA/NW IOWA
NATIONAL WEATHER SERVICE SIOUX FALLS SD
1200 AM CDT SAT AUG 27 2016

NOTE: "FAIR" INDICATES FEW OR NO CLOUDS BELOW 12,000 FEET WITH NO
SIGNIFICANT WEATHER AND OR OBSTRUCTIONS TO VISIBILITY.


SDZ038>040-050-052>070-270600-
SOUTHEAST SOUTH DAKOTA

CITY           SKY/WX    TMP DP  RH WIND       PRES   REMARKS
BROOKINGS      LGT RAIN  63  58  83 E8        30.08F
CHAMBERLAIN    CLOUDY    60  58  91 SE7       30.05F
HURON          PTCLDY    63  58  83 SE8       30.04F
MADISON        CLOUDY    63  63 100 SE13G18   30.08S
MITCHELL       LGT RAIN  66  60  81 SE17      30.05F
SIOUX FALLS    CLOUDY    66  60  81 SE13      30.08S
WINNER         FAIR      58  56  93 SW3       30.06R
YANKTON        MOCLDY    64  59  82 SE14      30.05R
$$

MNZ071-072-080-081-089-090-097-098-270600-
SOUTHWEST MINNESOTA

CITY           SKY/WX    TMP DP  RH WIND       PRES   REMARKS
FAIRMONT       CLOUDY    62  58  86 SE6       30.11S
JACKSON          N/A     61  57  88 SE5       30.11S
LUVERNE        CLOUDY    61  55  82 E3        30.10S
MARSHALL       PTCLDY    63  59  87 SE5       30.10S
MONTEVIDEO     CLOUDY    63  57  82 S7        30.10F
REDWOOD FALLS  MOCLDY    62  57  83 CALM      30.10R
TRACY          CLOUDY    63  59  87 S6        30.10S
WINDOM         MOCLDY    63  57  82 SE5       30.11R
WORTHINGTON    CLOUDY    60  59  96 E3        30.11S
$$

IAZ001>003-012>014-020>022-031-032-NEZ013-014-SDZ071-270600-
NORTHWEST IOWA

CITY           SKY/WX    TMP DP  RH WIND       PRES   REMARKS
CHEROKEE       CLOUDY    64  61  91 E3        30.08F
DENISON        CLOUDY    63  61  94 E8        30.04F FOG
ESTHERVILLE    CLOUDY    61  61 100 SE7       30.10F
LE MARS        CLOUDY    64  61  88 VRB5      30.07F
ORANGE CITY    CLOUDY    63  61  94 E7        30.07F
SHELDON        CLOUDY    63  63 100 SE9       30.07F
SIOUX CITY     CLOUDY    65  61  87 SE5       30.06F
SPENCER        CLOUDY    64  60  87 E8        30.09F
STORM LAKE     CLOUDY    63  61  94 E9        30.09F
$$

ABBREVIATIONS USED IN REMARKS
   TC - TEMPERATURE IN CELSIUS
  WCI - WIND CHILL INDEX
   HX - HEAT INDEX
  VSB - VISIBILITY





USA.gov is the U.S. government's official web portal to all federal, state and local government web resources and services.